Flag for South Korea Weather past 2 weeks in Gunsan, South Korea

Now
28 °F

Clear.


Feels Like: 28 °F
Forecast: 33 / 47 °F
Wind: 2 mph from Northeast

Location: Kunsan Ab

Current Time: Feb 27, 2015 at 10:35:36 PM

Latest Report: Feb 27, 2015 at 9:58 PM


Visibility: 10 mi

Pressure: 30.42 "Hg

Humidity: 68%

Dew point: 19 °F

Location of GunsanLocation

Historic Weather in Gunsan — Graph

°F

Gunsan temperature yesterday

Maximum temperature yesterday: 43 °F (at 11:58 AM)
Minimum temperature yesterday: 33 °F (at 11:58 PM)
Average temperature yesterday: 38 °F

Past Weeks' High & Low Weather Summary

 TemperatureHumidityPressure
High52 °F (Feb 15, 2:58 PM)100% (Feb 16, 4:03 AM)30.40 "Hg (Feb 16, 4:03 AM)
Low24 °F (Feb 13, 6:58 AM)36% (Feb 13, 10:58 AM)29.88 "Hg (Feb 16, 4:02 PM)
Average39 °F75%30.14 "Hg
* Reported Feb 12 8:58 PM — Feb 27 8:58 PM, Gunsan, Weather by CustomWeather, © 2015

Note: Actual official high and low records may vary slightly from our data, if they occured in-between our weather recording intervals... More about our weather records

Advertising

Gunsan weather history for previous 24 hours

 ConditionsComfort  
Time TempWeatherWind HumidityBarometerVisibility
8:58 PM
Fri, Feb 27
27 °FClear.6 mph73%30.40 "Hg10 mi
7:58 PM28 °FClear.9 mph68%30.38 "Hg10 mi
6:58 PM31 °FClear.9 mph65%30.37 "Hg10 mi
5:58 PM33 °FSunny.15 mph58%30.35 "Hg7 mi
4:58 PM34 °FSunny.14 mph54%30.35 "Hg10 mi
3:58 PM34 °FScattered clouds.13 mph52%30.35 "Hg10 mi
2:58 PM36 °FPassing clouds.16 mph45%30.35 "Hg15 mi
1:58 PM34 °FPassing clouds.16 mph45%30.36 "Hg15 mi
12:58 PM36 °FScattered clouds.13 mph39%30.36 "Hg15 mi
11:58 AM36 °FScattered clouds.15 mph38%30.38 "Hg15 mi
9:58 AM33 °FScattered clouds.21 mph39%30.37 "Hg15 mi
8:58 AMN/AScattered clouds.16 mphN/A30.38 "Hg15 mi
7:58 AM30 °FScattered clouds.17 mph53%30.37 "Hg10 mi
6:58 AM29 °FPassing clouds.14 mph58%30.34 "Hg7 mi
5:58 AM30 °FPassing clouds.12 mph56%30.32 "Hg8 mi
4:58 AM31 °FPassing clouds.16 mph58%30.32 "Hg9 mi
3:58 AM32 °FPassing clouds.18 mph57%30.29 "Hg6 mi
2:58 AM33 °FPassing clouds.16 mph59%30.29 "Hg7 mi
1:58 AM33 °FPassing clouds.18 mph56%30.28 "Hg6 mi
12:58 AM33 °FPartly cloudy.15 mph55%30.29 "Hg6 mi
11:58 PM
Thu, Feb 26
33 °FPassing clouds.18 mph55%30.28 "Hg6 mi
10:58 PM33 °FPassing clouds.23 mph51%30.27 "Hg10 mi
Weather by CustomWeather, © 2015

See weather overviewHow to use our weather pages